Time,TemperatureF,DewpointF,PressureIn,WindDirection,WindDirectionDegrees,WindSpeedMPH,WindSpeedGustMPH,Humidity,HourlyPrecipIn,Conditions,Clouds,dailyrainin,SoftwareType,DateUTC
2013-04-10 00:02:00,42.0,40.0,29.53,NNE,28,0.0,4.0,92,0.00,,,0.05,,2013-04-09 23:02:00,
2013-04-10 00:12:00,42.0,40.0,29.53,NNE,28,0.0,4.0,92,0.00,,,0.05,,2013-04-09 23:12:00,
2013-04-10 00:22:00,42.0,40.0,29.54,NNE,17,0.0,4.0,93,0.00,,,0.05,,2013-04-09 23:22:00,
2013-04-10 00:42:00,42.0,40.0,29.54,NE,38,0.0,2.0,93,0.00,,,0.05,,2013-04-09 23:42:00,
2013-04-10 00:52:00,42.0,40.0,29.55,NE,37,0.0,4.0,93,0.00,,,0.05,,2013-04-09 23:52:00,
2013-04-10 01:02:00,42.0,40.0,29.55,NE,37,0.0,4.0,93,0.00,,,0.05,,2013-04-10 00:02:00,
2013-04-10 01:11:00,42.0,40.0,29.55,NE,37,0.0,4.0,93,0.00,,,0.05,,2013-04-10 00:11:00,
2013-04-10 01:22:00,42.0,39.0,29.57,NE,44,0.0,6.0,88,0.00,,,0.05,,2013-04-10 00:22:00,
2013-04-10 01:32:00,41.0,37.0,29.57,NE,42,3.0,8.0,87,0.00,,,0.05,,2013-04-10 00:32:00,
2013-04-10 01:41:00,41.0,37.0,29.57,NE,42,3.0,8.0,87,0.00,,,0.05,,2013-04-10 00:41:00,
2013-04-10 01:52:00,41.0,37.0,29.57,NE,42,3.0,8.0,87,0.00,,,0.05,,2013-04-10 00:52:00,
2013-04-10 02:01:00,40.0,37.0,29.57,NNE,31,0.0,6.0,89,0.00,,,0.05,,2013-04-10 01:01:00,
2013-04-10 02:11:00,39.0,36.0,29.57,NNE,27,0.0,6.0,89,0.00,,,0.05,,2013-04-10 01:11:00,
2013-04-10 02:22:00,39.0,36.0,29.57,NNE,27,0.0,6.0,89,0.00,,,0.05,,2013-04-10 01:22:00,
2013-04-10 02:32:00,38.0,35.0,29.57,NE,35,0.0,10.0,90,0.00,,,0.05,,2013-04-10 01:32:00,
2013-04-10 02:42:00,38.0,35.0,29.57,NE,35,0.0,10.0,90,0.00,,,0.05,,2013-04-10 01:42:00,
2013-04-10 02:52:00,38.0,35.0,29.57,NE,35,0.0,10.0,90,0.00,,,0.05,,2013-04-10 01:52:00,
2013-04-10 03:02:00,38.0,35.0,29.57,NE,35,0.0,10.0,90,0.00,,,0.05,,2013-04-10 02:02:00,
2013-04-10 03:12:00,38.0,35.0,29.57,NE,35,0.0,10.0,90,0.00,,,0.05,,2013-04-10 02:12:00,
2013-04-10 03:23:00,37.0,35.0,29.58,North,0,0.0,0.0,92,0.00,,,0.05,,2013-04-10 02:23:00,
2013-04-10 03:33:00,37.0,35.0,29.58,North,0,0.0,0.0,92,0.00,,,0.05,,2013-04-10 02:33:00,
2013-04-10 03:43:00,37.0,35.0,29.58,North,0,0.0,0.0,92,0.00,,,0.05,,2013-04-10 02:43:00,
2013-04-10 03:52:00,37.0,35.0,29.58,North,0,0.0,0.0,92,0.00,,,0.05,,2013-04-10 02:52:00,
2013-04-10 04:02:00,37.0,35.0,29.60,NE,41,3.0,6.0,94,0.00,,,0.05,,2013-04-10 03:02:00,
2013-04-10 04:12:00,37.0,35.0,29.60,NE,41,3.0,6.0,94,0.00,,,0.05,,2013-04-10 03:12:00,
2013-04-10 04:22:00,37.0,35.0,29.60,NE,41,3.0,6.0,94,0.00,,,0.05,,2013-04-10 03:22:00,
2013-04-10 04:32:00,37.0,35.0,29.60,NE,41,3.0,6.0,94,0.00,,,0.05,,2013-04-10 03:32:00,
2013-04-10 04:43:00,37.0,35.0,29.60,NE,41,3.0,6.0,94,0.00,,,0.05,,2013-04-10 03:43:00,
2013-04-10 04:53:00,37.0,35.0,29.62,NE,39,3.0,8.0,94,0.00,,,0.05,,2013-04-10 03:53:00,
2013-04-10 05:03:00,37.0,35.0,29.63,NNE,25,0.0,4.0,94,0.00,,,0.05,,2013-04-10 04:03:00,
2013-04-10 05:13:00,37.0,35.0,29.63,NNE,25,0.0,4.0,94,0.00,,,0.05,,2013-04-10 04:13:00,
2013-04-10 05:22:00,37.0,35.0,29.64,NNE,29,0.0,4.0,93,0.00,,,0.05,,2013-04-10 04:22:00,
2013-04-10 05:33:00,37.0,35.0,29.64,NNE,29,0.0,4.0,93,0.00,,,0.05,,2013-04-10 04:33:00,
2013-04-10 05:42:00,37.0,35.0,29.64,NNE,29,0.0,4.0,93,0.00,,,0.05,,2013-04-10 04:42:00,
2013-04-10 05:53:00,37.0,35.0,29.64,NNE,29,0.0,4.0,93,0.00,,,0.05,,2013-04-10 04:53:00,
2013-04-10 06:02:00,37.0,35.0,29.64,North,11,0.0,6.0,94,0.00,,,0.05,,2013-04-10 05:02:00,
2013-04-10 06:12:00,37.0,35.0,29.64,North,11,0.0,6.0,94,0.00,,,0.05,,2013-04-10 05:12:00,
2013-04-10 06:22:00,37.0,35.0,29.65,NNE,33,3.0,6.0,93,0.00,,,0.05,,2013-04-10 05:22:00,
2013-04-10 06:32:00,36.0,34.0,29.65,NE,40,3.0,6.0,93,0.00,,,0.05,,2013-04-10 05:32:00,
2013-04-10 06:42:00,36.0,34.0,29.65,NE,40,3.0,6.0,93,0.00,,,0.05,,2013-04-10 05:42:00,
2013-04-10 06:52:00,36.0,34.0,29.66,NE,41,3.0,6.0,93,0.00,,,0.05,,2013-04-10 05:52:00,
2013-04-10 07:02:00,36.0,34.0,29.67,NNE,30,0.0,2.0,93,0.00,,,0.05,,2013-04-10 06:02:00,
2013-04-10 07:12:00,36.0,34.0,29.67,NNE,30,0.0,2.0,93,0.00,,,0.05,,2013-04-10 06:12:00,
2013-04-10 07:22:00,36.0,34.0,29.67,NNE,30,0.0,2.0,93,0.00,,,0.05,,2013-04-10 06:22:00,
2013-04-10 07:32:00,36.0,34.0,29.67,NNE,30,0.0,2.0,93,0.00,,,0.05,,2013-04-10 06:32:00,
2013-04-10 07:42:00,36.0,34.0,29.67,NNE,30,0.0,2.0,93,0.00,,,0.05,,2013-04-10 06:42:00,
2013-04-10 08:02:00,37.0,35.0,29.69,NE,37,0.0,2.0,93,0.00,,,0.03,,2013-04-10 07:02:00,
2013-04-10 08:12:00,37.0,35.0,29.69,NE,37,0.0,2.0,93,0.00,,,0.03,,2013-04-10 07:12:00,
2013-04-10 08:22:00,37.0,35.0,29.69,NE,37,0.0,2.0,93,0.00,,,0.03,,2013-04-10 07:22:00,
2013-04-10 08:32:00,37.0,35.0,29.69,NE,37,0.0,2.0,93,0.00,,,0.03,,2013-04-10 07:32:00,
2013-04-10 08:42:00,37.0,35.0,29.69,NE,37,0.0,2.0,93,0.00,,,0.03,,2013-04-10 07:42:00,
2013-04-10 08:52:00,37.0,35.0,29.69,North,0,0.0,0.0,93,0.00,,,0.02,,2013-04-10 07:52:00,
2013-04-10 09:02:00,37.0,35.0,29.69,North,0,0.0,0.0,93,0.00,,,0.02,,2013-04-10 08:02:00,
2013-04-10 09:12:00,37.0,35.0,29.69,North,0,0.0,0.0,93,0.00,,,0.02,,2013-04-10 08:12:00,
2013-04-10 09:32:00,38.0,36.0,29.69,ENE,68,0.0,4.0,91,0.00,,,0.02,,2013-04-10 08:32:00,
2013-04-10 09:42:00,38.0,36.0,29.69,ENE,68,0.0,4.0,91,0.00,,,0.02,,2013-04-10 08:42:00,
2013-04-10 09:52:00,38.0,35.0,29.70,WSW,250,0.0,8.0,90,0.00,,,0.02,,2013-04-10 08:52:00,
2013-04-10 10:02:00,38.0,35.0,29.70,WSW,250,0.0,8.0,90,0.00,,,0.02,,2013-04-10 09:02:00,
2013-04-10 10:12:00,40.0,36.0,29.69,West,267,0.0,6.0,87,0.00,,,0.01,,2013-04-10 09:12:00,
2013-04-10 10:22:00,40.0,36.0,29.69,West,267,0.0,6.0,87,0.00,,,0.01,,2013-04-10 09:22:00,
2013-04-10 10:32:00,40.0,36.0,29.69,West,267,0.0,6.0,87,0.00,,,0.01,,2013-04-10 09:32:00,
2013-04-10 10:43:00,40.0,36.0,29.69,West,267,0.0,6.0,87,0.00,,,0.01,,2013-04-10 09:43:00,
2013-04-10 10:53:00,43.0,38.0,29.70,WSW,244,0.0,6.0,83,0.00,,,0.01,,2013-04-10 09:53:00,
2013-04-10 11:02:00,45.0,40.0,29.70,West,269,0.0,6.0,82,0.00,,,0.01,,2013-04-10 10:02:00,
2013-04-10 11:12:00,45.0,40.0,29.70,West,269,0.0,6.0,82,0.00,,,0.01,,2013-04-10 10:12:00,
2013-04-10 11:23:00,45.0,40.0,29.70,West,269,0.0,6.0,82,0.00,,,0.01,,2013-04-10 10:23:00,
2013-04-10 11:33:00,45.0,40.0,29.70,West,269,0.0,6.0,82,0.00,,,0.01,,2013-04-10 10:33:00,
2013-04-10 11:42:00,45.0,40.0,29.70,West,269,0.0,6.0,82,0.00,,,0.01,,2013-04-10 10:42:00,
2013-04-10 12:02:00,48.0,41.0,29.68,SW,221,3.0,4.0,77,0.00,,,0.01,,2013-04-10 11:02:00,
2013-04-10 12:12:00,48.0,41.0,29.68,SW,221,3.0,4.0,77,0.00,,,0.01,,2013-04-10 11:12:00,
2013-04-10 12:22:00,50.0,42.0,29.68,NW,308,3.0,6.0,73,0.00,,,0.01,,2013-04-10 11:22:00,
2013-04-10 12:32:00,51.0,43.0,29.67,SSW,204,0.0,6.0,73,0.00,,,0.01,,2013-04-10 11:32:00,
2013-04-10 12:42:00,51.0,43.0,29.67,SSW,204,0.0,6.0,73,0.00,,,0.01,,2013-04-10 11:42:00,
2013-04-10 12:52:00,51.0,43.0,29.67,SSW,204,0.0,6.0,73,0.00,,,0.01,,2013-04-10 11:52:00,
2013-04-10 13:02:00,51.0,43.0,29.67,SSW,204,0.0,6.0,73,0.00,,,0.01,,2013-04-10 12:02:00,
2013-04-10 13:12:00,51.0,43.0,29.67,SSW,204,0.0,6.0,73,0.00,,,0.01,,2013-04-10 12:12:00,
2013-04-10 13:22:00,52.0,42.0,29.66,WSW,243,3.0,6.0,69,0.00,,,0.01,,2013-04-10 12:22:00,
2013-04-10 13:32:00,53.0,42.0,29.66,WSW,254,6.0,14.0,65,0.00,,,0.01,,2013-04-10 12:32:00,
2013-04-10 13:42:00,53.0,42.0,29.66,WSW,254,6.0,14.0,65,0.00,,,0.01,,2013-04-10 12:42:00,
2013-04-10 13:52:00,53.0,42.0,29.66,WSW,254,6.0,14.0,65,0.00,,,0.01,,2013-04-10 12:52:00,
2013-04-10 14:02:00,53.0,41.0,29.66,WSW,246,3.0,12.0,64,0.00,,,0.01,,2013-04-10 13:02:00,
2013-04-10 14:12:00,53.0,41.0,29.66,WSW,246,3.0,12.0,64,0.00,,,0.01,,2013-04-10 13:12:00,
2013-04-10 14:23:00,53.0,41.0,29.65,SW,233,6.0,12.0,64,0.00,,,0.01,,2013-04-10 13:23:00,
2013-04-10 14:32:00,53.0,41.0,29.65,SW,220,3.0,6.0,63,0.00,,,0.01,,2013-04-10 13:32:00,
2013-04-10 14:42:00,53.0,41.0,29.65,SW,220,3.0,6.0,63,0.00,,,0.01,,2013-04-10 13:42:00,
2013-04-10 14:53:00,53.0,41.0,29.65,SW,220,3.0,6.0,63,0.00,,,0.01,,2013-04-10 13:53:00,
2013-04-10 15:02:00,53.0,41.0,29.65,SW,220,3.0,6.0,63,0.00,,,0.01,,2013-04-10 14:02:00,
2013-04-10 15:11:00,53.0,41.0,29.65,SW,220,3.0,6.0,63,0.00,,,0.01,,2013-04-10 14:11:00,
2013-04-10 15:22:00,52.0,40.0,29.64,SSW,203,3.0,8.0,64,0.00,,,0.01,,2013-04-10 14:22:00,
2013-04-10 15:32:00,51.0,40.0,29.64,WSW,243,6.0,12.0,65,0.00,,,0.01,,2013-04-10 14:32:00,
2013-04-10 15:42:00,51.0,40.0,29.64,WSW,243,6.0,12.0,65,0.00,,,0.01,,2013-04-10 14:42:00,
2013-04-10 15:52:00,51.0,40.0,29.63,SW,226,6.0,22.0,67,0.00,,,0.01,,2013-04-10 14:52:00,
2013-04-10 16:02:00,51.0,40.0,29.63,SW,226,6.0,22.0,67,0.00,,,0.01,,2013-04-10 15:02:00,
2013-04-10 16:12:00,51.0,40.0,29.63,SW,226,6.0,22.0,67,0.00,,,0.01,,2013-04-10 15:12:00,
2013-04-10 16:22:00,51.0,40.0,29.63,SW,215,3.0,6.0,67,0.00,,,0.01,,2013-04-10 15:22:00,
2013-04-10 16:32:00,51.0,40.0,29.63,SW,215,3.0,6.0,67,0.00,,,0.01,,2013-04-10 15:32:00,
2013-04-10 16:42:00,51.0,40.0,29.63,SW,215,3.0,6.0,67,0.00,,,0.01,,2013-04-10 15:42:00,
2013-04-10 16:52:00,51.0,41.0,29.62,South,191,3.0,8.0,69,0.00,,,0.01,,2013-04-10 15:52:00,
2013-04-10 17:02:00,51.0,42.0,29.60,SW,214,3.0,10.0,71,0.00,,,0.01,,2013-04-10 16:02:00,
2013-04-10 17:12:00,51.0,42.0,29.60,SW,214,3.0,10.0,71,0.00,,,0.01,,2013-04-10 16:12:00,
2013-04-10 17:22:00,50.0,40.0,29.60,South,182,6.0,14.0,69,0.00,,,0.01,,2013-04-10 16:22:00,
2013-04-10 17:32:00,50.0,41.0,29.60,SE,128,6.0,10.0,70,0.00,,,0.01,,2013-04-10 16:32:00,
2013-04-10 17:42:00,50.0,41.0,29.60,SE,128,6.0,10.0,70,0.00,,,0.01,,2013-04-10 16:42:00,
2013-04-10 17:52:00,50.0,41.0,29.59,SE,128,3.0,12.0,70,0.00,,,0.01,,2013-04-10 16:52:00,
2013-04-10 18:02:00,50.0,41.0,29.58,SSW,194,3.0,8.0,71,0.00,,,0.01,,2013-04-10 17:02:00,
2013-04-10 18:12:00,50.0,41.0,29.58,SSW,194,3.0,8.0,71,0.00,,,0.01,,2013-04-10 17:12:00,
2013-04-10 18:22:00,50.0,41.0,29.58,SSW,194,3.0,8.0,71,0.00,,,0.01,,2013-04-10 17:22:00,
2013-04-10 18:33:00,50.0,41.0,29.57,SE,129,3.0,10.0,71,0.00,,,0.01,,2013-04-10 17:33:00,
2013-04-10 18:42:00,50.0,41.0,29.57,SE,129,3.0,10.0,71,0.00,,,0.01,,2013-04-10 17:42:00,
2013-04-10 18:52:00,50.0,41.0,29.57,SE,129,3.0,10.0,71,0.00,,,0.01,,2013-04-10 17:52:00,
2013-04-10 19:02:00,50.0,41.0,29.57,SE,129,3.0,10.0,71,0.00,,,0.01,,2013-04-10 18:02:00,
2013-04-10 19:12:00,50.0,41.0,29.57,SE,129,3.0,10.0,71,0.00,,,0.01,,2013-04-10 18:12:00,
2013-04-10 19:23:00,49.0,41.0,29.56,SSE,165,3.0,10.0,74,0.00,,,0.01,,2013-04-10 18:23:00,
2013-04-10 19:33:00,49.0,41.0,29.56,SSE,165,3.0,10.0,74,0.00,,,0.01,,2013-04-10 18:33:00,
2013-04-10 19:43:00,49.0,41.0,29.56,SSE,165,3.0,10.0,74,0.00,,,0.01,,2013-04-10 18:43:00,
2013-04-10 19:52:00,48.0,41.0,29.54,SSE,167,6.0,10.0,78,0.00,,,0.01,,2013-04-10 18:52:00,
2013-04-10 20:02:00,47.0,41.0,29.54,SSE,151,3.0,8.0,80,0.00,,,0.01,,2013-04-10 19:02:00,
2013-04-10 20:12:00,47.0,41.0,29.54,SSE,151,3.0,8.0,80,0.00,,,0.01,,2013-04-10 19:12:00,
2013-04-10 20:22:00,47.0,41.0,29.54,SSE,152,3.0,10.0,81,0.00,,,0.01,,2013-04-10 19:22:00,
2013-04-10 20:32:00,46.0,41.0,29.53,SE,135,3.0,12.0,84,0.00,,,0.01,,2013-04-10 19:32:00,
2013-04-10 20:42:00,46.0,41.0,29.53,SE,135,3.0,12.0,84,0.00,,,0.01,,2013-04-10 19:42:00,
2013-04-10 20:52:00,46.0,41.0,29.53,SE,135,3.0,12.0,84,0.00,,,0.01,,2013-04-10 19:52:00,
2013-04-10 21:02:00,46.0,41.0,29.53,SE,135,3.0,12.0,84,0.00,,,0.01,,2013-04-10 20:02:00,
2013-04-10 21:12:00,46.0,41.0,29.53,SE,135,3.0,12.0,84,0.00,,,0.01,,2013-04-10 20:12:00,
2013-04-10 21:23:00,45.0,42.0,29.52,SE,144,0.0,6.0,90,0.02,,,0.02,,2013-04-10 20:23:00,
2013-04-10 21:33:00,45.0,42.0,29.51,ESE,117,3.0,6.0,90,0.03,,,0.03,,2013-04-10 20:33:00,
2013-04-10 21:42:00,44.0,42.0,29.50,East,99,3.0,6.0,93,0.04,,,0.05,,2013-04-10 20:42:00,
2013-04-10 21:52:00,44.0,42.0,29.50,East,99,3.0,6.0,93,0.04,,,0.05,,2013-04-10 20:52:00,
2013-04-10 22:02:00,44.0,42.0,29.50,East,90,3.0,8.0,93,0.05,,,0.06,,2013-04-10 21:02:00,
2013-04-10 22:12:00,44.0,42.0,29.50,East,90,3.0,8.0,93,0.05,,,0.06,,2013-04-10 21:12:00,
2013-04-10 22:22:00,44.0,42.0,29.49,ESE,108,3.0,20.0,94,0.05,,,0.06,,2013-04-10 21:22:00,
2013-04-10 22:32:00,44.0,42.0,29.47,ESE,108,3.0,10.0,94,0.06,,,0.09,,2013-04-10 21:32:00,
2013-04-10 22:42:00,44.0,42.0,29.47,ESE,108,3.0,10.0,94,0.06,,,0.09,,2013-04-10 21:42:00,
2013-04-10 22:52:00,43.0,42.0,29.47,East,98,3.0,12.0,95,0.06,,,0.10,,2013-04-10 21:52:00,
2013-04-10 23:02:00,43.0,42.0,29.46,ENE,77,3.0,12.0,95,0.06,,,0.12,,2013-04-10 22:02:00,
2013-04-10 23:12:00,43.0,42.0,29.46,ENE,77,3.0,12.0,95,0.06,,,0.12,,2013-04-10 22:12:00,
2013-04-10 23:22:00,43.0,42.0,29.46,East,85,3.0,10.0,96,0.08,,,0.13,,2013-04-10 22:22:00,
2013-04-10 23:33:00,43.0,42.0,29.45,East,84,3.0,10.0,97,0.08,,,0.17,,2013-04-10 22:33:00,
2013-04-10 23:42:00,43.0,42.0,29.45,East,84,3.0,10.0,97,0.08,,,0.17,,2013-04-10 22:42:00,
2013-04-10 23:52:00,43.0,42.0,29.45,East,84,3.0,10.0,97,0.08,,,0.17,,2013-04-10 22:52:00,